Find Starlink 3079

NORAD ID: 49433 Int'l Des: 2021-104 Owner: SPXS Country: US Constellation: starlink operational
LEOCIRCULAR

Live Position

Loading 3D Globe...

About Starlink 3079

Description loading...

Upcoming Passes

Passes for default location (London). Set your location on the main map for personalized predictions.

Altitude History

Loading altitude history...

Two-Line Element Set

1 49433U 21104AB 26105.19732675 .00000074 00000-0 22777-4 0 9995
2 49433 53.2182 45.2320 0001593 86.2056 273.9118 15.08837184245510
Epoch: Apr 15, 2026 • Age: 5 hours

Current Status

Altitude 540.3 km
Velocity 7.60 km/s
Sub-Earth Point 25.46°N, 152.44°W
Launch Date Nov 13, 2021
Age 4.4 years
Type internet

Technical Details

Classification Payload
Mass 290.00 kg
Dry Mass 270.00 kg
Total Mass 290.00 kg
Length 0.20 m
Diameter 2.80 m
Span 9.00 m
Shape Box + pan
Manufacturer SPXS
Bus Type Starlink
Phase Status In Orbit
Owner/State SPXS/US

Most Searched